When you browse on this site, cookies collect data to enhance your experience and personalize the content and advertising you see.
Visit our Privacy Policy to learn more. By continuing to use the site, you agree to this use of cookies and data.
  • en Suisse
  • Liste des pays
  • À 7 jours
  • Température de l'eau
  • Carte météo
  • Widgets météo
  • user-avatar
    Se connecter

    Météo par heure à Dhâkâ

    Ce jour, 16 Octobre, Mercredi

    Heure Température Précipitation Vent Pression Humidité
    00:00 +29°C° 0 mm 1 m/s 758 mmHg 67%
    01:00 +28°C° 0 mm 1 m/s 758 mmHg 69%
    02:00 +28°C° 0 mm 1 m/s 757 mmHg 71%
    03:00 +28°C° 0 mm 1 m/s 757 mmHg 72%
    04:00 +28°C° 0 mm 1 m/s 757 mmHg 73%
    05:00 +25°C° 0 mm 0 m/s 758 mmHg 74%
    06:00 +25°C° 0 mm 0 m/s 758 mmHg 76%
    07:00 +27°C° 0 mm 0 m/s 758 mmHg 71%
    08:00 +28°C° 0 mm 0 m/s 759 mmHg 67%
    09:00 +30°C° 0 mm 0 m/s 759 mmHg 62%
    10:00 +31°C° 0 mm 0 m/s 758 mmHg 58%
    11:00 +32°C° 0 mm 0 m/s 758 mmHg 53%
    12:00 +35°C° 0 mm 2 m/s 758 mmHg 48%
    13:00 +35°C° 0 mm 1 m/s 757 mmHg 47%
    14:00 +35°C° 0 mm 1 m/s 756 mmHg 47%
    15:00 +35°C° 0 mm 1 m/s 755 mmHg 46%
    16:00 +34°C° 0 mm 1 m/s 755 mmHg 50%
    17:00 +33°C° 0 mm 1 m/s 756 mmHg 55%
    18:00 +32°C° 0 mm 1 m/s 756 mmHg 59%
    19:00 +31°C° 0 mm 1 m/s 756 mmHg 61%
    20:00 +31°C° 0 mm 1 m/s 757 mmHg 63%
    21:00 +30°C° 0 mm 1 m/s 757 mmHg 64%
    22:00 +30°C° 0 mm 1 m/s 757 mmHg 66%
    23:00 +29°C° 0 mm 1 m/s 757 mmHg 68%

    Demain, 17 Octobre, Jeudi

    Heure Température Précipitation Vent Pression Humidité
    00:00 +29°C° 0 mm 1 m/s 757 mmHg 70%
    01:00 +29°C° 0 mm 1 m/s 757 mmHg 71%
    02:00 +28°C° 0 mm 1 m/s 757 mmHg 72%
    03:00 +28°C° 0 mm 1 m/s 757 mmHg 73%
    04:00 +28°C° 0 mm 1 m/s 757 mmHg 74%
    05:00 +28°C° 0 mm 2 m/s 757 mmHg 75%
    06:00 +27°C° 0 mm 2 m/s 758 mmHg 76%
    07:00 +29°C° 0 mm 2 m/s 758 mmHg 72%
    08:00 +30°C° 0 mm 2 m/s 759 mmHg 67%
    09:00 +32°C° 0 mm 2 m/s 759 mmHg 63%
    10:00 +34°C° 0.1 mm 2 m/s 759 mmHg 59%
    11:00 +35°C° 0.1 mm 2 m/s 758 mmHg 55%
    12:00 +36°C° 0.1 mm 2 m/s 757 mmHg 52%
    13:00 +36°C° 0 mm 2 m/s 757 mmHg 52%
    14:00 +36°C° 0 mm 2 m/s 756 mmHg 52%
    15:00 +36°C° 0 mm 2 m/s 755 mmHg 52%
    16:00 +35°C° 0 mm 2 m/s 755 mmHg 56%
    17:00 +34°C° 0 mm 2 m/s 755 mmHg 59%
    18:00 +32°C° 0 mm 2 m/s 755 mmHg 63%
    19:00 +31°C° 0 mm 2 m/s 756 mmHg 64%
    20:00 +30°C° 0 mm 2 m/s 757 mmHg 66%
    21:00 +30°C° 0 mm 2 m/s 757 mmHg 68%
    22:00 +30°C° 0 mm 2 m/s 757 mmHg 69%
    23:00 +29°C° 0 mm 2 m/s 757 mmHg 70%

    Après-demain, 18 Octobre, Vendredi

    Heure Température Précipitation Vent Pression Humidité
    00:00 +29°C° 0 mm 2 m/s 757 mmHg 71%
    01:00 +28°C° 0 mm 2 m/s 757 mmHg 73%
    02:00 +28°C° 0 mm 2 m/s 757 mmHg 75%
    03:00 +28°C° 0 mm 2 m/s 757 mmHg 77%
    04:00 +27°C° 0 mm 2 m/s 757 mmHg 78%
    05:00 +27°C° 0 mm 2 m/s 757 mmHg 79%
    06:00 +27°C° 0 mm 1 m/s 757 mmHg 80%
    07:00 +29°C° 0 mm 2 m/s 757 mmHg 74%
    08:00 +30°C° 0 mm 2 m/s 758 mmHg 69%
    09:00 +32°C° 0 mm 2 m/s 759 mmHg 64%
    10:00 +34°C° 0 mm 2 m/s 758 mmHg 59%
    11:00 +35°C° 0 mm 2 m/s 758 mmHg 55%
    12:00 +36°C° 0 mm 2 m/s 757 mmHg 51%
    13:00 +36°C° 0 mm 2 m/s 757 mmHg 50%
    14:00 +36°C° 0 mm 2 m/s 756 mmHg 48%
    15:00 +36°C° 0 mm 2 m/s 755 mmHg 47%
    16:00 +35°C° 0 mm 2 m/s 755 mmHg 52%
    17:00 +34°C° 0 mm 2 m/s 755 mmHg 56%
    18:00 +31°C° 0 mm 2 m/s 755 mmHg 60%
    19:00 +31°C° 0 mm 2 m/s 756 mmHg 62%
    20:00 +30°C° 0 mm 2 m/s 756 mmHg 64%
    21:00 +30°C° 0 mm 2 m/s 757 mmHg 66%
    22:00 +29°C° 0 mm 2 m/s 757 mmHg 67%
    23:00 +29°C° 0 mm 2 m/s 757 mmHg 69%

    19 Octobre, Samedi

    Heure Température Précipitation Vent Pression Humidité
    00:00 +29°C° 0 mm 3 m/s 757 mmHg 70%
    01:00 +28°C° 0 mm 2 m/s 757 mmHg 72%
    02:00 +28°C° 0 mm 2 m/s 757 mmHg 73%
    03:00 +28°C° 0 mm 2 m/s 757 mmHg 75%
    04:00 +28°C° 0 mm 2 m/s 757 mmHg 76%
    05:00 +27°C° 0 mm 1 m/s 757 mmHg 77%
    06:00 +27°C° 0 mm 1 m/s 757 mmHg 77%
    07:00 +29°C° 0 mm 1 m/s 758 mmHg 73%
    08:00 +30°C° 0 mm 1 m/s 759 mmHg 68%
    09:00 +32°C° 0 mm 1 m/s 759 mmHg 63%
    10:00 +33°C° 0 mm 1 m/s 759 mmHg 58%
    11:00 +35°C° 0 mm 2 m/s 758 mmHg 53%
    12:00 +36°C° 0 mm 2 m/s 758 mmHg 47%
    13:00 +36°C° 0 mm 2 m/s 757 mmHg 47%
    14:00 +36°C° 0 mm 2 m/s 756 mmHg 46%
    15:00 +37°C° 0 mm 3 m/s 756 mmHg 45%
    16:00 +35°C° 0 mm 3 m/s 755 mmHg 49%
    17:00 +34°C° 0 mm 3 m/s 755 mmHg 54%
    18:00 +31°C° 0 mm 3 m/s 755 mmHg 58%
    19:00 +31°C° 0 mm 2 m/s 756 mmHg 60%
    20:00 +30°C° 0 mm 2 m/s 757 mmHg 61%
    21:00 +30°C° 0 mm 2 m/s 757 mmHg 63%
    22:00 +29°C° 0 mm 2 m/s 757 mmHg 65%
    23:00 +29°C° 0 mm 2 m/s 757 mmHg 67%

    20 Octobre, Dimanche

    Heure Température Précipitation Vent Pression Humidité
    00:00 +29°C° 0 mm 2 m/s 757 mmHg 68%
    01:00 +28°C° 0 mm 2 m/s 757 mmHg 71%
    02:00 +28°C° 0 mm 2 m/s 757 mmHg 74%
    03:00 +28°C° 0 mm 2 m/s 757 mmHg 77%
    04:00 +27°C° 0 mm 1 m/s 757 mmHg 78%
    05:00 +27°C° 0 mm 1 m/s 757 mmHg 80%
    06:00 +27°C° 0 mm 1 m/s 758 mmHg 81%
    07:00 +28°C° 0 mm 1 m/s 758 mmHg 75%
    08:00 +30°C° 0 mm 1 m/s 759 mmHg 69%
    09:00 +32°C° 0 mm 1 m/s 759 mmHg 63%
    10:00 +34°C° 0 mm 2 m/s 759 mmHg 58%
    11:00 +35°C° 0 mm 2 m/s 758 mmHg 53%
    12:00 +36°C° 0 mm 3 m/s 758 mmHg 48%
    13:00 +36°C° 0 mm 3 m/s 757 mmHg 47%
    14:00 +36°C° 0 mm 3 m/s 756 mmHg 46%
    15:00 +36°C° 0 mm 3 m/s 756 mmHg 45%
    16:00 +35°C° 0 mm 3 m/s 756 mmHg 50%
    17:00 +34°C° 0 mm 3 m/s 756 mmHg 54%
    18:00 +31°C° 0 mm 2 m/s 756 mmHg 58%
    19:00 +31°C° 0 mm 2 m/s 756 mmHg 60%
    20:00 +30°C° 0 mm 2 m/s 757 mmHg 61%
    21:00 +30°C° 0 mm 2 m/s 757 mmHg 62%
    22:00 +29°C° 0 mm 2 m/s 757 mmHg 64%
    23:00 +29°C° 0 mm 2 m/s 757 mmHg 66%

    21 Octobre, Lundi

    Heure Température Précipitation Vent Pression Humidité
    00:00 +28°C° 0 mm 2 m/s 757 mmHg 69%
    01:00 +28°C° 0 mm 2 m/s 757 mmHg 70%
    02:00 +28°C° 0 mm 2 m/s 757 mmHg 72%
    03:00 +27°C° 0 mm 2 m/s 757 mmHg 73%
    04:00 +27°C° 0 mm 2 m/s 757 mmHg 74%
    05:00 +27°C° 0 mm 1 m/s 757 mmHg 75%
    06:00 +27°C° 0 mm 1 m/s 757 mmHg 75%
    07:00 +28°C° 0 mm 1 m/s 757 mmHg 70%
    08:00 +30°C° 0 mm 1 m/s 758 mmHg 65%
    09:00 +31°C° 0 mm 1 m/s 758 mmHg 59%
    10:00 +32°C° 0 mm 2 m/s 757 mmHg 56%
    11:00 +34°C° 0 mm 3 m/s 757 mmHg 52%
    12:00 +36°C° 0 mm 4 m/s 756 mmHg 49%
    13:00 +36°C° 0 mm 4 m/s 756 mmHg 49%
    14:00 +35°C° 0 mm 4 m/s 755 mmHg 49%
    15:00 +35°C° 0 mm 4 m/s 754 mmHg 50%
    16:00 +34°C° 0 mm 3 m/s 754 mmHg 54%
    17:00 +32°C° 0 mm 2 m/s 754 mmHg 57%
    18:00 +31°C° 0 mm 2 m/s 754 mmHg 61%
    19:00 +30°C° 0 mm 2 m/s 755 mmHg 62%
    20:00 +30°C° 0 mm 1 m/s 755 mmHg 64%
    21:00 +30°C° 0 mm 1 m/s 755 mmHg 65%
    22:00 +29°C° 0 mm 1 m/s 755 mmHg 67%
    23:00 +29°C° 0 mm 2 m/s 755 mmHg 70%
    Voir plus